Wind_Speed
29 30 30 30 29 29 29 29 30 30 31 31 31 31 31 30 30 30 30 31 31 31 31 32 32 33 33 33 33 34 33 32 32 31 30 30 29 30
31 30 30 31 31 30 29 29 29 29 29 30 31 31 31 31 32 32 32 32 31 32 32 33 33 34 34 34 33 32 31 31 30 29 29 28 28 28
32 32 31 32 32 32 31 31 30 30 29 29 30 30 31 32 32 32 32 32 32 32 32 32 34 33 32 31 30 30 30 28 27 27 27 27 27 29
32 33 33 32 32 33 33 33 32 31 30 29 29 28 29 30 29 28 29 30 30 30 31 31 30 29 29 28 27 26 25 24 24 25 25 25 26 27
32 32 32 32 32 33 33 34 33 32 31 30 29 29 28 28 27 27 27 28 28 29 29 28 27 26 26 24 23 22 21 21 21 22 23 23 24 25
30 31 32 32 32 32 33 33 32 31 31 30 30 28 27 27 27 27 27 26 25 25 25 24 24 23 21 20 19 19 19 19 19 20 21 22 23 24
27 29 30 31 31 31 30 30 30 30 30 29 29 28 27 27 27 25 24 23 23 22 21 20 19 17 16 16 16 16 16 17 17 18 19 20 21 22
23 25 26 27 28 29 29 28 28 28 27 26 26 25 25 24 23 23 22 20 20 19 18 16 15 14 14 13 13 13 13 14 15 16 17 18 19 19
20 22 23 25 26 26 26 25 26 25 24 22 21 20 20 20 19 18 18 18 18 17 16 15 13 12 11 11 10 11 12 13 13 14 15 16 16 16
18 20 21 22 22 23 23 23 22 21 21 20 19 17 16 16 15 15 15 15 15 13 12 12 10 9 8 9 9 10 11 11 12 12 13 13 13 14
16 17 17 18 19 20 20 20 20 18 18 17 17 16 15 15 15 14 13 13 12 11 10 9 8 7 7 7 8 8 9 9 10 10 11 11 11 11
14 14 15 16 16 17 18 18 18 18 18 17 16 15 13 13 12 12 12 11 10 9 8 7 6 6 6 6 6 6 7 7 8 9 9 9 9 10
10 12 13 15 15 16 17 17 17 18 18 17 16 14 13 12 10 10 10 9 8 8 7 6 6 5 5 5 5 5 6 7 7 8 8 8 9 10
7 9 11 14 15 16 16 15 15 17 16 15 14 13 12 11 10 9 8 8 7 7 6 6 5 5 4 4 4 5 5 6 6 7 7 8 9 10
5 8 11 13 15 16 16 16 15 14 14 13 13 12 11 10 9 8 7 7 7 7 7 6 5 5 4 4 4 4 5 5 6 7 7 8 9 10
8 9 11 13 15 16 16 15 16 15 14 13 12 11 10 9 9 9 8 7 7 7 6 5 5 5 4 4 3 4 4 5 5 6 7 8 9 10
13 13 13 14 15 16 16 15 14 14 13 13 12 11 10 9 9 8 8 7 7 6 5 4 4 4 4 3 3 3 4 4 5 6 7 9 10 11
17 16 16 16 16 16 16 15 14 14 13 12 11 11 10 9 9 8 8 7 6 5 5 4 3 3 2 2 2 3 4 5 6 7 8 9 10 11
19 18 17 16 16 16 15 14 14 13 12 12 11 11 10 10 9 8 7 6 6 5 4 4 3 2 2 2 2 3 5 5 6 7 9 10 11 12
19 18 17 16 15 15 15 14 14 13 13 12 11 11 10 9 8 7 7 6 5 5 4 4 3 2 2 3 4 5 6 7 8 8 9 11 12 13
18 17 16 16 15 15 14 14 14 13 13 12 11 10 10 9 8 7 7 6 5 5 4 3 3 3 3 4 5 6 7 8 8 9 11 12 13 14
18 17 17 16 15 15 14 14 13 12 11 11 10 9 9 8 7 6 6 5 5 4 3 3 3 4 5 5 6 7 8 8 9 11 12 13 13 14
17 16 15 14 14 13 13 12 12 11 10 10 9 8 8 7 6 5 5 4 4 3 3 3 4 5 6 7 8 9 9 10 11 12 13 13 14 15
Wind_Direction
238 237 239 237 237 239 242 244 245 245 246 248 249 252 254 257 257 260 260 261 261 264 267 269 270 272 274 276 277 278 280 281 282 283 284 285 286 288
238 238 240 240 239 239 241 243 246 247 249 251 252 253 256 258 260 260 260 261 263 265 268 269 271 272 273 274 277 278 279 279 281 281 281 284 286 288
239 240 241 242 242 241 242 244 246 248 250 254 255 256 258 260 261 262 261 262 263 265 266 268 270 271 273 274 275 277 279 279 280 281 282 284 287 290
240 240 242 242 243 243 244 246 248 250 252 254 257 259 261 261 263 262 264 264 263 265 266 268 270 271 272 273 273 276 277 279 280 282 285 287 290 292
242 243 244 244 244 245 246 248 249 251 253 255 256 258 260 261 261 266 267 265 264 265 266 267 268 269 271 271 272 274 277 280 283 285 288 290 293 295
245 245 244 245 246 247 248 249 251 251 253 255 255 256 259 260 261 264 263 263 262 263 265 266 266 267 267 268 270 272 276 281 284 287 290 293 295 296
246 246 246 245 246 248 249 250 250 251 251 253 253 255 257 258 259 259 259 258 257 258 260 261 263 264 264 270 272 274 278 283 287 292 295 297 298 300
248 246 246 246 245 245 247 247 247 248 248 249 249 250 251 252 253 253 252 250 250 250 253 254 256 256 263 269 273 277 283 288 293 297 301 303 304 306
249 247 245 244 242 243 242 242 243 244 246 244 244 247 246 244 245 241 241 243 244 246 248 249 252 255 259 265 274 282 290 295 297 300 304 309 312 314
247 248 245 239 237 236 237 239 238 238 237 236 236 236 234 232 229 228 232 234 236 235 239 242 247 251 259 271 281 288 293 298 302 306 310 314 318 322
246 245 241 233 228 227 227 229 229 225 222 220 222 225 226 224 222 221 219 219 223 227 232 237 245 256 269 280 286 292 298 303 307 312 318 321 326 330
243 237 230 222 216 214 212 214 214 213 211 209 209 209 209 209 209 209 211 213 217 220 225 231 244 258 267 276 284 295 303 310 314 320 325 327 332 337
235 225 217 211 208 201 198 200 202 203 203 203 204 205 205 204 202 203 203 206 212 216 222 230 241 249 256 268 281 296 307 313 317 325 329 330 335 339
214 207 199 192 189 186 186 186 189 193 193 194 194 191 192 193 194 197 201 206 212 217 221 226 232 238 247 263 283 296 306 314 320 326 329 333 337 340
162 166 170 171 171 170 170 170 171 177 180 179 177 177 182 187 192 196 202 207 211 214 215 217 221 229 244 262 276 293 305 312 318 323 329 333 336 339
121 135 144 147 155 158 159 162 164 165 167 170 172 175 181 186 191 195 200 202 204 204 205 210 219 229 239 251 269 293 307 314 319 323 328 332 334 335
105 118 127 131 137 145 151 152 154 157 160 164 168 170 175 181 187 189 190 191 192 194 200 209 215 221 233 247 268 293 307 313 320 324 326 328 328 330
98 108 115 121 131 137 141 144 147 149 152 157 162 167 170 171 171 172 177 181 184 191 199 206 213 217 223 246 272 297 308 313 317 321 325 327 328 331
93 100 107 112 120 125 130 135 140 144 148 151 154 156 159 162 164 167 172 176 181 188 195 202 205 209 223 250 285 306 313 314 316 320 323 327 329 330
90 96 101 106 111 118 122 127 134 138 142 146 149 151 153 155 157 160 166 175 183 188 193 196 201 218 252 277 293 303 308 311 314 318 321 325 327 329
86 93 98 103 107 110 115 121 127 131 133 137 142 145 148 151 155 159 166 173 180 186 194 205 227 255 275 288 295 301 307 311 315 318 320 322 324 327
84 90 95 100 105 108 111 116 120 125 128 132 138 142 146 150 154 161 169 176 184 193 210 233 258 275 285 292 299 303 306 309 313 316 318 320 323 326
80 86 91 97 101 105 109 114 119 124 129 133 138 142 146 151 157 164 170 178 190 213 243 269 282 287 290 295 300 303 306 308 310 312 315 317 320 322
Height
5813 5817 5821 5824 5828 5831 5834 5837 5840 5843 5846 5849 5851 5853 5855 5857 5859 5860 5862 5863 5863 5864 5865 5866 5866 5866 5866 5866 5865 5865 5864 5863 5863 5862 5861 5860 5858 5857
5805 5808 5812 5816 5819 5822 5826 5829 5832 5836 5838 5841 5843 5845 5847 5849 5851 5853 5854 5855 5856 5857 5858 5858 5858 5858 5858 5858 5858 5857 5857 5856 5856 5855 5854 5853 5852 5850
5797 5801 5804 5808 5811 5814 5818 5821 5825 5828 5831 5833 5835 5837 5839 5841 5843 5845 5847 5848 5849 5849 5850 5850 5851 5851 5850 5850 5850 5850 5850 5850 5849 5849 5848 5847 5845 5844
5789 5792 5796 5799 5803 5806 5810 5813 5816 5819 5823 5825 5827 5829 5831 5833 5835 5837 5838 5840 5841 5842 5842 5843 5843 5843 5844 5844 5844 5844 5844 5843 5843 5843 5842 5841 5839 5837
5781 5784 5788 5791 5795 5798 5802 5805 5808 5811 5814 5817 5819 5822 5824 5826 5828 5830 5831 5832 5833 5834 5835 5836 5836 5837 5837 5837 5838 5838 5838 5838 5838 5837 5836 5834 5833 5831
5773 5776 5779 5783 5786 5790 5793 5796 5800 5803 5806 5809 5812 5814 5817 5818 5821 5823 5824 5825 5826 5827 5828 5829 5830 5830 5831 5832 5833 5833 5833 5833 5832 5832 5830 5829 5827 5825
5765 5768 5771 5774 5777 5781 5784 5788 5791 5795 5798 5801 5804 5807 5809 5811 5814 5815 5817 5818 5820 5821 5823 5824 5825 5825 5826 5827 5828 5828 5828 5828 5827 5826 5825 5823 5821 5819
5758 5760 5763 5766 5770 5773 5777 5780 5784 5787 5791 5794 5797 5800 5802 5804 5807 5809 5811 5813 5815 5817 5818 5819 5821 5822 5822 5823 5824 5824 5824 5823 5822 5821 5820 5818 5816 5814
5751 5754 5756 5759 5762 5766 5769 5773 5777 5781 5784 5788 5791 5793 5796 5798 5801 5803 5805 5808 5810 5812 5814 5815 5817 5818 5819 5820 5820 5820 5820 5819 5818 5817 5815 5814 5811 5809
5745 5747 5750 5753 5756 5760 5763 5767 5771 5775 5779 5782 5785 5788 5791 5794 5797 5799 5802 5804 5806 5808 5811 5812 5813 5815 5816 5817 5817 5817 5816 5815 5814 5813 5812 5810 5808 5805
5739 5742 5744 5747 5751 5754 5758 5762 5766 5771 5774 5778 5781 5784 5787 5791 5793 5796 5799 5801 5803 5806 5808 5810 5811 5812 5813 5813 5813 5813 5813 5812 5811 5810 5808 5807 5805 5802
5734 5737 5740 5743 5746 5750 5754 5758 5763 5767 5771 5775 5778 5782 5785 5788 5791 5794 5796 5799 5801 5803 5805 5807 5808 5809 5810 5811 5810 5810 5810 5809 5808 5807 5806 5804 5802 5800
5730 5733 5736 5739 5743 5747 5751 5756 5760 5765 5769 5773 5776 5780 5783 5786 5789 5791 5794 5797 5799 5801 5803 5805 5806 5807 5808 5808 5808 5808 5808 5807 5806 5805 5804 5802 5800 5798
5727 5730 5733 5737 5741 5745 5750 5754 5759 5763 5767 5771 5774 5778 5781 5785 5787 5790 5793 5795 5797 5799 5801 5803 5804 5805 5806 5806 5806 5806 5806 5805 5804 5803 5802 5800 5799 5797
5727 5729 5733 5736 5740 5745 5749 5754 5758 5762 5766 5770 5774 5777 5781 5784 5786 5789 5791 5793 5795 5797 5799 5800 5802 5803 5804 5804 5804 5804 5804 5803 5802 5801 5800 5799 5797 5795
5728 5731 5734 5737 5741 5746 5750 5754 5758 5763 5766 5770 5774 5777 5780 5783 5785 5788 5790 5792 5794 5796 5797 5799 5800 5801 5802 5802 5803 5802 5802 5802 5801 5800 5799 5797 5795 5793
5732 5734 5737 5741 5744 5748 5752 5756 5760 5764 5767 5771 5774 5777 5780 5782 5785 5787 5789 5791 5793 5795 5796 5797 5799 5799 5800 5801 5801 5801 5800 5800 5799 5798 5797 5796 5794 5792
5738 5740 5742 5745 5748 5751 5755 5759 5762 5765 5769 5772 5774 5777 5780 5782 5785 5787 5789 5791 5793 5794 5795 5797 5798 5799 5799 5799 5800 5800 5799 5799 5798 5797 5795 5794 5792 5790
5745 5747 5748 5751 5753 5756 5758 5761 5764 5767 5770 5773 5775 5778 5781 5783 5785 5787 5789 5791 5792 5794 5795 5796 5797 5798 5798 5798 5799 5798 5798 5797 5796 5795 5793 5792 5790 5788
5752 5753 5755 5756 5758 5760 5762 5765 5767 5770 5772 5775 5777 5779 5782 5784 5786 5788 5789 5791 5792 5794 5795 5796 5796 5797 5797 5797 5797 5797 5796 5795 5794 5792 5791 5789 5788 5785
5760 5760 5761 5762 5763 5765 5767 5769 5771 5773 5775 5777 5779 5781 5783 5785 5787 5788 5790 5791 5792 5794 5794 5795 5796 5796 5796 5796 5795 5795 5794 5793 5791 5790 5789 5787 5785 5783
5766 5766 5767 5768 5769 5770 5771 5773 5774 5776 5778 5780 5782 5783 5785 5787 5788 5789 5790 5792 5793 5793 5794 5794 5795 5795 5794 5794 5793 5792 5792 5791 5789 5788 5786 5784 5782 5780
5772 5772 5772 5773 5773 5774 5775 5776 5778 5779 5781 5782 5784 5785 5786 5788 5789 5790 5791 5792 5792 5793 5793 5793 5793 5793 5792 5792 5791 5790 5789 5788 5786 5785 5783 5781 5779 5776